This demonstration page uses our WeatherBlox Daily Observations layout. Learn more.

Left ArrowRight Arrow

Hourly Observations for July 2, 2018

Temp ( °F °C ) Dew Point ( °F °C ) Humidity (%) Winds ( mph kmh ) Pressure ( in mb ) Visibility ( mi km ) Precip ( " mm )
12:16 am 00:16 Partly Cloudy 77 25 77 25 100 100 S 7 11 29.97 1015 10 16.0934 N/A
12:37 am 00:37 Partly Cloudy 77 25 77 25 100 100 S 7 11 29.97 1015 10 16.0934 N/A
12:57 am 00:57 Partly Cloudy 77 25 77 25 100 100 S 7 11 29.97 1015 10 16.0934 N/A
1:16 am 01:16 Partly Cloudy 77 25 77 25 100 100 SW 5 7 29.97 1015 10 16.0934 N/A
1:37 am 01:37 Mostly Cloudy 77 25 77 25 100 100 S 5 7 29.97 1015 10 16.0934 N/A
1:57 am 01:57 Partly Cloudy 77 25 77 25 100 100 SSE 6 9 29.94 1014 10 16.0934 N/A
2:16 am 02:16 Clear 77 25 77 25 100 100 S 6 9 29.94 1014 10 16.0934 N/A
2:37 am 02:37 Partly Cloudy 77 25 77 25 100 100 WSW 6 9 29.94 1014 10 16.0934 N/A
2:56 am 02:56 Mostly Cloudy 77 25 77 25 100 100 SSW 5 7 29.94 1014 10 16.0934 N/A
3:16 am 03:16 Cloudy 77 25 77 25 100 100 S 3 6 29.94 1014 10 16.0934 N/A
3:37 am 03:37 Partly Cloudy 75 24 75 24 100 100 WNW 6 9 29.97 1015 10 16.0934 N/A
3:56 am 03:56 Mostly Cloudy 75 24 73 23 94 94 WNW 9 15 29.97 1015 10 16.0934 N/A
4:16 am 04:16 Mostly Cloudy 75 24 73 23 94 94 W 3 6 29.97 1015 10 16.0934 N/A
4:37 am 04:37 Partly Cloudy 73 23 73 23 100 100 N N/A 29.97 1015 10 16.0934 N/A
4:56 am 04:56 Partly Cloudy 73 23 73 23 100 100 N N/A 29.97 1015 10 16.0934 N/A
5:17 am 05:17 Clear 73 23 73 23 100 100 SSE 3 6 29.97 1015 10 16.0934 N/A
5:36 am 05:36 Clear 72 22 72 22 100 100 N N/A 29.97 1015 10 16.0934 N/A
5:56 am 05:56 Partly Cloudy 72 22 72 22 100 100 N N/A 29.97 1015 10 16.0934 N/A
6:17 am 06:17 Mostly Cloudy 72 22 72 22 100 100 N N/A 29.97 1015 10 16.0934 N/A
6:36 am 06:36 Cloudy 72 22 72 22 100 100 N N/A 29.97 1015 10 16.0934 N/A
6:56 am 06:56 Mostly Cloudy 73 23 73 23 100 100 N N/A 30 1016 10 16.0934 N/A
7:17 am 07:17 Mostly Cloudy 73 23 73 23 100 100 N N/A 30 1016 10 16.0934 N/A
7:36 am 07:36 Mostly Cloudy 73 23 73 23 100 100 N N/A 30 1016 10 16.0934 N/A
7:57 am 07:57 Mostly Cloudy 73 23 73 23 100 100 N N/A 30 1016 10 16.0934 N/A
8:16 am 08:16 Partly Cloudy 75 24 75 24 100 100 N N/A 30 1016 10 16.0934 N/A
8:36 am 08:36 Mostly Cloudy 75 24 75 24 100 100 S 3 6 30.03 1017 10 16.0934 N/A
8:57 am 08:57 Partly Cloudy 75 24 75 24 100 100 ESE 3 6 30 1016 10 16.0934 N/A
9:16 am 09:16 Mostly Cloudy 75 24 75 24 100 100 N N/A 30.03 1017 10 16.0934 N/A
9:36 am 09:36 Partly Cloudy 75 24 75 24 100 100 N N/A 30.03 1017 10 16.0934 N/A
9:57 am 09:57 Sunny 77 25 75 24 94 94 N N/A 30.03 1017 10 16.0934 N/A
10:16 am 10:16 Sunny 77 25 75 24 94 94 N N/A 30.03 1017 10 16.0934 N/A
10:36 am 10:36 Sunny 77 25 75 24 94 94 N N/A 30.03 1017 10 16.0934 N/A
10:57 am 10:57 Sunny 79 26 75 24 89 89 N N/A 30.03 1017 10 16.0934 N/A
11:16 am 11:16 Sunny 81 27 77 25 89 89 E 3 6 30.03 1017 10 16.0934 N/A
11:36 am 11:36 Sunny 81 27 75 24 84 84 N N/A 30.03 1017 10 16.0934 N/A
11:57 am 11:57 Mostly Cloudy 81 27 75 24 84 84 N N/A 30.03 1017 10 16.0934 N/A
12:16 pm 12:16 Mostly Cloudy 81 27 75 24 84 84 N N/A 30.03 1017 10 16.0934 N/A
12:37 pm 12:37 Mostly Cloudy 82 28 77 25 84 84 N N/A 30.03 1017 10 16.0934 N/A
12:57 pm 12:57 Cloudy 82 28 77 25 84 84 N N/A 30.03 1017 10 16.0934 N/A
1:16 pm 13:16 Partly Cloudy 86 30 77 25 75 75 NNW 3 6 30.03 1017 10 16.0934 N/A
1:37 pm 13:37 Partly Cloudy 86 30 77 25 75 75 N N/A 30.03 1017 10 16.0934 N/A
1:57 pm 13:57 Partly Cloudy 84 29 77 25 79 79 N N/A 30.03 1017 10 16.0934 N/A
2:16 pm 14:16 Mostly Cloudy 84 29 77 25 79 79 ENE 3 6 30.03 1017 10 16.0934 N/A
2:37 pm 14:37 Mostly Cloudy 82 28 77 25 84 84 N N/A 30.03 1017 10 16.0934 N/A
2:57 pm 14:57 Partly Cloudy 86 30 77 25 75 75 WNW 3 6 30.03 1017 10 16.0934 N/A
3:16 pm 15:16 Mostly Cloudy 86 30 77 25 75 75 N N/A 30.03 1017 10 16.0934 N/A
3:37 pm 15:37 Mostly Cloudy 84 29 77 25 79 79 NE 3 6 30.03 1017 10 16.0934 N/A
3:57 pm 15:57 Partly Cloudy 86 30 77 25 75 75 N N/A 30.03 1017 10 16.0934 N/A
4:16 pm 16:16 Partly Cloudy 86 30 77 25 75 75 N N/A 30 1016 10 16.0934 N/A
4:36 pm 16:36 Partly Cloudy 88 31 79 26 75 75 WNW 3 6 29.97 1015 10 16.0934 N/A
4:57 pm 16:57 Partly Cloudy 86 30 77 25 75 75 N N/A 30 1016 10 16.0934 N/A
5:17 pm 17:17 Mostly Cloudy 88 31 77 25 70 70 N 5 7 29.97 1015 10 16.0934 N/A
5:36 pm 17:36 Mostly Cloudy 84 29 77 25 79 79 NNE 6 9 30 1016 10 16.0934 N/A
5:57 pm 17:57 Mostly Cloudy 84 29 79 26 84 84 NE 5 7 30.03 1017 10 16.0934 N/A
6:17 pm 18:17 Cloudy 84 29 79 26 84 84 N 5 7 30.03 1017 10 16.0934 N/A
6:36 pm 18:36 Mostly Cloudy 82 28 79 26 89 89 N 5 7 30 1016 10 16.0934 N/A
6:57 pm 18:57 Mostly Cloudy 82 28 79 26 89 89 NNW 3 6 30.03 1017 10 16.0934 N/A
7:17 pm 19:17 Partly Cloudy 84 29 79 26 84 84 N 3 6 30 1016 10 16.0934 N/A
7:36 pm 19:36 Sunny 84 29 79 26 84 84 NE 3 6 30 1016 10 16.0934 N/A
7:57 pm 19:57 Partly Cloudy 84 29 79 26 84 84 NE 5 7 30 1016 10 16.0934 N/A
8:17 pm 20:17 Partly Cloudy 82 28 79 26 89 89 ENE 5 7 30.03 1017 10 16.0934 N/A
8:36 pm 20:36 Mostly Cloudy 82 28 77 25 84 84 NNE 6 9 30.03 1017 10 16.0934 N/A
8:57 pm 20:57 Mostly Cloudy 81 27 77 25 89 89 NNE 5 7 30.03 1017 10 16.0934 N/A
9:17 pm 21:17 Mostly Cloudy 81 27 77 25 89 89 NNE 3 6 30.03 1017 10 16.0934 N/A
9:36 pm 21:36 Partly Cloudy 79 26 77 25 94 94 NNE 5 7 30.03 1017 10 16.0934 N/A
9:57 pm 21:57 Partly Cloudy 77 25 77 25 100 100 N N/A 30.03 1017 10 16.0934 N/A
10:17 pm 22:17 Mostly Cloudy 77 25 77 25 100 100 N N/A 30.06 1018 10 16.0934 N/A
10:36 pm 22:36 Cloudy 77 25 77 25 100 100 N N/A 30.06 1018 10 16.0934 N/A
10:57 pm 22:57 Mostly Cloudy 77 25 75 24 94 94 NE 3 6 30.06 1018 10 16.0934 N/A
11:16 pm 23:16 Mostly Cloudy 75 24 75 24 100 100 NE 3 6 30.09 1019 10 16.0934 N/A
11:36 pm 23:36 Partly Cloudy 75 24 75 24 100 100 E 5 7 30.09 1019 10 16.0934 N/A
11:57 pm 23:57 Partly Cloudy 75 24 75 24 100 100 E 5 7 30.09 1019 10 16.0934 N/A

Powered by AerisWeather